Regional Weather Roundup
Issued by NWS Sterling, VA

Home | Current Version | Previous Version | Text Only | Print | Product List | Glossary Off
Versions: 1 2 3 4 5 6 7 8 9 10 11 12 13 14 15 16 17 18 19 20 21 22 23 24 25 26 27 28 29 30 31 32 33 34 35 36 37 38 39 40 41 42 43 44 45 46 47 48 49 50

000
ASUS41 KLWX 290310
RWRLWX

REGIONAL WEATHER ROUNDUP
NATIONAL WEATHER SERVICE BALTIMORE MD/WASHINGTON DC
1100 PM EDT MON JUL 28 2014

Note: "FAIR" indicates few or no clouds below 12,000 feet
with no significant weather and/or obstructions to visibility.
 TC=TEMPERATURE CELSIUS

 * =Non NWS site. Station does not report precipitation (e.g. rain,
    snow, etc.), thunder, or fog.

DCZ001-MDZ009-015-VAZ040>042-051-053>054-290400-
WASHINGTON METRO
  /KDAA//-FT BELVOIR

CITY           SKY/WX    TMP DP  RH WIND       PRES   REMARKS
WASHINGTON NAT PTCLDY    74  58  57 NW13G23   29.83R
DULLES         PTCLDY    69  57  65 NW12G20   29.84R
ANDREWS AFB    CLEAR     71  60  67 NW10      29.82R
QUANTICO       CLEAR     71  58  63 N8        29.84S
COLLEGE PARK*  PTCLDY    72  61  68 W8        29.82R
LEESBURG*      CLEAR     70  61  73 NW9       29.86R
GAITHERSBURG*  PTCLDY    66  57  72 NW10      29.88R

$$

MDZ006>007-011-014-290400-
BALTIMORE METRO

CITY           SKY/WX    TMP DP  RH WIND       PRES   REMARKS
BWI AIRPORT    MOCLDY    70  60  70 NW10      29.81R
MD SCIENCE CTR   N/A     72  59  63 MISG      29.81R
MARTIN STATE   MOCLDY    72  63  73 W10       29.81S
ANNAPOLIS      CLEAR     73  61  65 NW13G21   29.80R
FORT MEADE*    CLOUDY    68  59  73 NW7       29.84R

$$

MDZ012-015-019>023-290400-
MARYLAND EASTERN SHORE

CITY           SKY/WX    TMP DP  RH WIND       PRES   REMARKS
OCEAN CITY     CLEAR     73  59  61 W5        29.74F
SALISBURY      NOT AVBL
BAY BRIDGE AP*   N/A     72  61  68 NW12G17   29.80R
CAMBRIDGE*     PTCLDY    77  59  53 NW14G20   29.78S
EASTON*        MOCLDY    74  62  66 N15G23    29.82R

$$

MDZ017>025-290400-
SOUTHERN MARYLAND

CITY           SKY/WX    TMP DP  RH WIND       PRES   REMARKS
PATUXENT RIVER PTCLDY    74  58  57 NW16G23   29.80R
ST INIGOES     CLEAR     74  57  55 W9G21     29.79S
LEONARDTOWN*   CLEAR     72  55  56 NW3       29.82S

$$

MDZ003>005-290400-
NORTH CENTRAL MARYLAND

CITY           SKY/WX    TMP DP  RH WIND       PRES   REMARKS
FREDERICK*     PTCLDY    68  63  83 W6        29.87R
HAGERSTOWN APT MOCLDY    66  56  70 NW12      29.86R
WESTMINSTER*   CLOUDY    66  63  88 NW6       29.84R

$$

MDZ501>502-290400-
WESTERN MARYLAND

CITY           SKY/WX    TMP DP  RH WIND       PRES   REMARKS
OAKLAND*       CLOUDY    52 N/A N/A NW8       29.97S HAZE
CUMBERLAND*    PTCLDY    64  54  68 NW13G18   29.94S

$$

VAZ025>031-290400-
SHENANDOAH VALLEY

CITY           SKY/WX    TMP DP  RH WIND       PRES   REMARKS
WINCHESTER*    CLOUDY    68  55  64 NW10      29.89S
STAUNTON*      CLEAR     66  53  63 NW5       29.93S

$$

WVZ021-048>050-054>055-290400-
EASTERN WEST VIRGINIA PANHANDLE

CITY           SKY/WX    TMP DP  RH WIND       PRES   REMARKS
MARTINSBURG    MOCLDY    68  55  63 W12       29.89R
PETERSBURG*    PTCLDY    61  49  65 N6        29.94S

$$

VAZ036>039-050-290400-
CENTRAL FOOTHILLS

CITY           SKY/WX    TMP DP  RH WIND       PRES   REMARKS
CHARLOTTESVILL CLEAR     67  57  70 N3        29.88R
ORANGE*        CLEAR     70  55  60 W9        29.88S

$$

VAZ055>057-290400-
NORTH AND CENTRAL PIEDMONT

CITY           SKY/WX    TMP DP  RH WIND       PRES   REMARKS
FREDERICKSBRG* CLEAR     72  59  62 NW5       29.84R
STAFFORD*      CLEAR     68  59  73 NW7       29.89R

$$

NCZ024-NYZ072-PAZ021-071-VAZ022-071-290400-
OTHER REGIONAL OBSERVATIONS

CITY           SKY/WX    TMP DP  RH WIND       PRES   REMARKS
NEW YORK CITY  CLEAR     70  57  63 W9        29.72R
PHILADELPHIA   MOCLDY    72  59  63 NW10      29.76R
PITTSBURGH     PTCLDY    58  52  80 NW9       29.96R
ROANOKE        PTCLDY    68  54  60 NW12      29.95S
RICHMOND       PTCLDY    76  55  48 NW9       29.83R
RALEIGH        PTCLDY    74  57  55 VRB3      29.88R

$$

ANZ530>537-290400-
MARINE OBSERVATIONS

STATION/POSITION TIME  TEMP    WIND        PRES
                       AIR SEA DIR/SP/G
                 (UTC) (F)     (DEG/KT/KT) (MB)
THOMAS PT LIGHT  0300   72 79  320/ 13/ 15 1009.6R
BALT KEY BRIDGE  0300   73     300/ 12/ 15 1009.2R
COVE POINT       0300   74     330/ 14/ 19 1008.6S
LEWISETTA        0300   75 80  320/ 13/ 16 1008.8S
SOLOMONS ISLAND  0300      80                N/A
PINEY POINT      0300          330/ 22/ 25   N/A

$$




USA.gov is the U.S. government's official web portal to all federal, state and local government web resources and services.